Wetbulb
46.75 48.37 49.65 50.78 51.41 52.57 51.55 50.00 42.11 52.19 55.40 42.82 42.67 40.15 45.40 47.49 49.17 51.43 49.12 48.39 46.80 43.60 45.53 42.50 41.37 41.59 46.57 49.18 49.28 44.90 45.54 41.90 35.38 42.30 47.13 48.01 45.29 43.10 42.53 30.53 32.07 31.76 29.08 31.86
47.22 47.67 49.43 50.13 51.17 52.20 50.14 46.27 46.95 53.49 52.16 36.62 38.05 42.39 45.85 48.34 48.11 48.38 48.13 47.28 48.44 47.73 45.69 41.92 43.38 46.07 49.90 50.36 48.62 45.20 46.33 39.48 29.70 35.21 41.13 45.48 42.40 43.78 43.83 43.22 36.41 31.82 25.81 31.57
47.21 47.59 46.64 49.93 50.60 51.81 51.42 46.91 41.49 48.93 49.80 45.14 41.26 39.97 42.72 44.41 50.14 49.16 49.85 48.58 48.93 46.27 44.17 46.87 43.24 45.13 49.41 50.25 48.16 45.77 47.83 42.66 36.44 29.95 36.77 42.53 39.96 43.43 43.76 40.39 30.17 30.94 32.07 37.77
46.71 46.38 46.46 49.38 50.14 51.68 51.12 46.66 42.14 48.04 41.69 43.31 42.06 43.81 44.45 44.40 44.58 49.14 49.71 47.24 46.92 44.96 40.49 43.14 42.83 46.37 46.78 49.14 46.49 46.83 45.21 37.74 40.33 42.39 44.28 44.50 43.08 43.04 43.69 40.65 39.82 34.00 37.65 39.86
46.38 46.39 46.33 48.89 49.65 51.44 48.28 44.46 43.41 48.41 45.21 45.88 44.30 42.52 43.71 44.97 46.30 47.28 45.95 45.86 46.82 45.76 42.92 45.00 42.44 46.63 45.60 44.35 45.92 44.51 45.87 37.85 38.15 36.55 43.23 41.87 38.84 41.67 41.84 41.41 41.71 39.67 40.02 39.56
46.17 46.79 46.19 47.39 49.34 50.52 46.05 47.61 49.32 48.47 44.38 44.69 42.32 41.66 45.26 45.96 47.91 48.59 49.37 48.84 46.96 44.82 48.12 49.85 49.48 50.03 49.47 48.86 45.13 42.78 41.89 36.14 32.87 30.61 37.18 36.05 28.40 36.09 39.98 41.29 42.02 40.75 35.19 40.00
46.68 46.69 45.94 47.74 48.99 50.31 48.39 48.61 48.52 46.77 40.23 44.61 42.34 45.08 46.70 47.24 47.71 46.40 49.63 49.71 46.81 50.06 52.78 51.17 49.58 48.01 48.22 48.80 47.09 48.51 39.36 37.53 32.29 28.65 29.08 20.65 36.96 43.90 42.62 41.39 41.24 41.49 41.30 41.96
46.48 46.67 46.68 48.21 48.76 50.15 47.27 48.63 49.62 48.42 35.77 45.09 44.12 45.22 47.19 49.49 49.92 47.92 50.25 51.87 52.50 52.82 50.20 42.33 39.27 35.12 35.52 40.10 45.38 45.81 45.97 35.64 31.56 26.82 27.17 33.47 38.65 41.75 41.05 38.69 37.84 42.74 41.49 42.57
46.01 46.49 47.59 48.15 48.74 49.73 48.82 47.05 49.56 50.60 45.79 44.03 47.28 45.21 48.52 45.65 43.85 45.42 48.30 51.99 52.55 52.61 45.82 35.64 33.03 30.64 36.05 35.65 39.57 44.33 42.83 38.80 31.06 28.48 25.04 21.16 35.87 42.62 45.51 43.78 31.51 43.84 43.93 42.96
46.55 46.99 47.63 48.43 48.71 49.00 47.88 47.00 50.28 49.41 47.65 48.98 48.54 45.56 47.18 50.20 47.26 44.33 47.01 48.50 46.86 50.26 35.44 35.46 31.22 31.58 42.09 34.19 33.19 31.45 31.03 30.82 27.61 25.33 23.63 31.39 43.59 44.70 45.61 30.24 32.70 43.99 44.44 43.68
46.84 47.12 47.61 47.82 47.53 47.68 46.65 45.22 48.29 50.34 48.18 49.18 52.14 51.68 48.81 50.96 48.60 42.62 46.89 46.10 44.95 39.61 37.34 35.14 33.24 32.30 34.84 35.01 40.33 36.18 33.13 30.45 27.18 30.92 29.00 26.96 45.03 43.39 35.67 41.14 43.53 44.38 43.74 43.35
46.59 47.30 47.43 47.31 47.20 47.41 47.37 42.14 49.50 52.88 47.80 49.93 55.26 54.86 54.64 55.00 53.43 49.62 47.63 48.56 46.87 46.92 41.76 39.90 37.47 34.86 34.26 33.91 29.98 42.95 33.54 38.72 33.74 35.70 33.74 42.99 43.91 43.24 45.23 45.15 43.80 44.14 44.92 46.05
47.32 47.34 47.60 47.14 47.31 47.67 47.10 45.72 51.95 51.49 47.62 48.68 51.37 50.78 53.68 56.50 56.55 55.40 47.71 49.73 51.60 50.02 51.74 43.77 40.51 36.31 34.30 32.32 33.23 36.65 41.89 45.27 37.11 37.68 42.06 43.01 43.75 46.39 47.66 47.59 46.57 46.77 44.95 44.17
46.98 47.03 47.17 47.30 47.69 48.73 48.90 47.51 50.93 51.02 48.20 41.63 48.50 56.27 52.35 56.21 57.52 56.69 56.61 54.29 54.61 53.75 51.53 40.54 37.60 37.20 45.24 33.76 39.11 36.58 41.26 42.73 40.79 39.14 42.20 45.36 45.68 46.34 46.48 45.24 45.52 42.71 41.85 41.19
47.16 47.55 47.78 48.15 49.33 50.16 50.74 51.28 51.47 53.25 47.44 43.74 46.01 52.35 53.92 55.04 55.46 55.37 56.32 54.18 52.30 48.74 41.20 35.23 37.04 38.82 40.35 34.84 37.03 33.41 43.10 41.18 35.00 32.48 44.61 42.85 42.11 43.80 44.56 42.45 41.73 42.19 40.59 39.09
47.02 47.73 48.44 48.72 48.97 49.73 50.86 45.94 51.45 52.38 50.77 46.26 39.59 49.86 50.66 52.15 54.02 53.30 53.59 52.88 51.17 50.65 45.37 40.76 43.54 46.57 40.03 33.41 30.60 43.10 44.56 45.57 45.87 43.89 45.09 43.76 42.82 41.95 42.47 40.48 40.30 40.18 39.48 39.03
47.68 47.89 48.07 48.67 48.98 50.74 47.31 46.46 50.80 51.33 51.76 47.29 38.85 39.21 48.96 52.27 52.05 49.65 50.54 52.12 50.34 49.14 46.18 39.25 40.74 42.09 44.44 32.98 32.40 42.75 44.08 44.72 45.03 45.81 45.02 41.46 42.28 39.01 40.35 39.29 38.85 39.05 38.23 37.81
47.99 47.95 48.44 48.89 49.50 50.49 49.27 52.13 50.35 50.49 51.59 48.93 38.80 37.61 42.51 51.48 41.61 40.63 48.37 43.94 45.31 45.23 42.31 41.08 36.95 40.28 35.34 33.34 40.72 42.37 43.97 44.00 43.66 42.75 44.05 41.23 40.73 40.38 39.52 39.27 38.00 35.83 34.52 34.74
48.03 48.46 48.73 49.86 50.22 49.43 51.12 49.64 49.40 54.21 49.68 38.87 37.58 36.35 36.15 47.88 42.98 41.00 43.32 46.04 37.42 44.03 36.50 36.26 38.49 32.90 33.64 40.53 40.38 41.02 42.70 42.18 41.33 41.26 40.68 39.87 38.36 38.24 37.42 35.84 35.05 33.88 33.52 33.50
48.55 49.77 49.53 43.05 49.30 49.65 50.38 49.42 45.23 43.53 44.22 42.05 35.42 41.48 37.80 44.37 36.91 36.91 37.63 36.53 37.21 32.71 37.33 40.37 33.96 30.26 38.17 39.84 40.46 41.19 42.13 42.49 40.35 36.36 34.88 35.81 36.34 35.77 36.48 35.30 33.82 33.50 33.45 31.98
50.30 46.68 42.16 48.23 49.23 48.64 41.79 34.92 35.77 36.87 33.52 36.16 36.90 39.38 38.16 44.56 36.94 35.44 36.86 35.23 34.53 29.43 33.82 33.44 33.04 30.05 36.20 38.77 39.05 39.95 41.39 43.05 42.09 40.22 38.80 38.77 38.08 35.06 33.22 32.44 32.08 30.27 29.64 29.24
49.19 48.62 49.29 48.01 45.22 40.00 35.23 33.17 33.38 35.90 33.93 33.60 36.16 37.76 41.74 38.87 43.30 34.94 37.27 34.25 32.56 28.95 38.43 34.41 28.95 33.25 37.34 37.88 38.28 39.93 40.75 40.17 39.46 39.13 36.94 36.56 35.55 34.83 32.91 31.17 30.39 29.38 29.00 29.21
48.17 42.52 37.97 41.24 35.72 33.66 32.54 29.11 32.63 32.24 33.63 34.88 34.88 34.52 36.53 38.36 39.95 35.61 34.91 34.56 32.41 35.30 33.21 29.67 29.55 35.78 36.87 37.71 38.10 37.65 37.96 37.08 35.85 35.33 35.20 34.35 32.81 32.13 31.43 30.84 30.19 29.08 27.92 28.45
38.43 34.46 31.56 32.28 31.91 30.47 30.34 31.24 31.82 32.18 32.36 33.64 35.80 34.55 34.53 34.37 34.14 33.46 32.35 32.30 33.32 31.06 28.55 27.63 32.28 35.12 36.43 36.89 37.43 36.36 34.52 32.85 32.17 31.79 30.80 30.38 29.65 29.13 28.58 28.34 25.60 25.58 25.71 27.22
33.43 32.59 28.41 28.79 31.06 31.97 31.97 32.34 32.71 32.86 34.86 34.19 35.62 35.08 36.59 33.27 33.02 33.05 32.38 31.14 29.03 30.04 27.40 31.27 33.69 35.31 35.84 35.46 34.24 32.93 31.82 31.19 31.23 31.30 30.19 29.09 28.41 27.22 27.58 26.63 27.01 26.38 24.16 22.45
32.90 31.45 30.78 31.95 31.71 31.00 31.57 31.98 32.01 35.16 33.63 34.90 35.06 33.17 32.66 31.73 32.69 31.66 31.06 29.40 25.91 28.72 30.71 32.36 34.45 34.17 34.46 33.29 33.77 34.25 33.98 32.80 32.22 31.54 31.28 30.20 27.78 26.52 26.77 26.89 24.68 22.09 20.67 17.29
31.59 30.07 31.83 31.80 31.60 30.70 31.83 31.83 32.72 35.87 33.96 32.01 32.71 30.78 28.77 32.15 31.18 28.58 30.05 26.95 29.58 31.06 31.24 32.86 34.18 34.44 33.05 33.20 33.73 33.66 33.15 32.47 31.18 30.86 30.90 30.23 28.56 26.59 25.55 24.75 25.93 25.44 23.11 16.72
MSLP
1007.38 1007.83 1008.26 1009.10 1010.14 1011.46 1012.44 1011.79 1011.63 1010.87 1012.21 1014.00 1013.05 1011.58 1010.35 1008.98 1006.82 1006.14 1005.60 1004.69 1004.65 1004.93 1005.44 1006.08 1006.35 1006.69 1006.82 1006.10 1006.80 1008.64 1009.79 1010.85 1011.34 1010.56 1009.01 1008.44 1008.58 1009.28 1010.50 1012.42 1013.83 1014.25 1013.77 1012.13
1006.29 1006.92 1007.36 1008.09 1009.14 1010.00 1010.67 1010.42 1010.87 1011.34 1010.20 1011.08 1010.88 1010.57 1009.80 1008.71 1007.06 1005.98 1005.18 1004.58 1004.55 1004.60 1005.33 1007.45 1005.83 1006.54 1006.91 1006.54 1007.15 1008.26 1009.09 1009.97 1010.69 1010.38 1009.63 1008.72 1008.63 1008.86 1009.64 1011.04 1012.62 1013.60 1013.55 1011.78
1005.38 1006.01 1006.93 1007.19 1007.98 1008.86 1009.53 1009.32 1009.47 1010.22 1010.08 1008.46 1008.97 1009.32 1008.54 1007.98 1006.60 1006.02 1005.23 1004.57 1004.51 1004.67 1005.15 1005.81 1005.87 1006.81 1007.30 1007.30 1007.80 1008.31 1008.73 1009.83 1010.70 1010.84 1010.13 1009.36 1009.09 1009.08 1009.52 1010.46 1012.17 1012.71 1012.39 1011.18
1004.23 1005.22 1006.11 1006.44 1007.10 1007.94 1008.40 1007.46 1006.52 1006.10 1006.92 1007.71 1007.67 1007.91 1007.57 1007.05 1006.23 1005.51 1004.77 1004.56 1004.35 1004.73 1004.87 1005.01 1005.57 1006.67 1007.76 1008.20 1008.45 1008.70 1009.17 1010.40 1010.85 1010.83 1010.48 1009.99 1009.44 1009.43 1009.65 1009.96 1010.47 1011.29 1011.00 1010.57
1003.43 1004.28 1005.49 1005.73 1006.26 1007.49 1007.49 1005.86 1004.65 1005.19 1005.02 1006.51 1007.05 1006.52 1005.98 1005.76 1005.24 1004.81 1004.37 1004.56 1004.11 1004.38 1004.99 1005.18 1005.62 1006.41 1007.24 1007.96 1008.98 1009.15 1009.64 1011.11 1011.69 1011.95 1011.26 1010.75 1010.29 1009.62 1009.40 1009.41 1009.48 1009.69 1009.90 1009.69
1002.56 1003.35 1004.55 1005.14 1005.47 1006.74 1005.90 1005.51 1003.88 1003.80 1004.72 1005.31 1005.99 1004.19 1004.50 1004.60 1004.58 1003.97 1003.60 1003.73 1004.12 1004.58 1004.99 1005.28 1005.90 1005.99 1006.91 1007.59 1008.69 1009.80 1010.69 1012.03 1013.29 1013.70 1013.04 1012.07 1011.23 1009.56 1009.08 1009.02 1009.09 1009.39 1009.72 1009.76
1001.64 1002.62 1003.73 1004.47 1004.96 1005.61 1005.63 1004.93 1004.38 1003.97 1003.99 1004.20 1002.91 1003.97 1004.32 1004.14 1003.88 1004.10 1003.32 1003.46 1004.05 1004.90 1004.69 1005.81 1006.74 1007.36 1008.05 1008.50 1009.15 1009.82 1011.36 1013.00 1014.24 1015.33 1014.90 1013.45 1010.59 1009.04 1008.60 1008.89 1009.52 1009.48 1009.85 1010.09
1000.97 1002.04 1002.94 1003.56 1004.48 1005.23 1006.05 1005.53 1005.35 1003.98 1003.50 1003.08 1003.63 1003.28 1002.94 1003.86 1003.80 1004.21 1003.76 1003.86 1003.73 1004.40 1005.98 1008.37 1009.66 1010.19 1010.26 1010.22 1010.43 1010.85 1011.55 1013.41 1015.51 1016.23 1015.77 1013.45 1010.72 1009.52 1009.01 1008.95 1010.37 1010.24 1010.35 1010.60
1000.40 1001.28 1002.12 1002.89 1003.69 1004.78 1005.89 1005.30 1005.19 1004.58 1003.60 1001.53 1001.44 1002.50 1002.46 1002.95 1003.62 1004.37 1004.52 1004.56 1005.20 1004.78 1007.35 1009.37 1011.10 1011.29 1011.07 1011.44 1011.52 1011.93 1012.52 1013.64 1015.49 1016.68 1016.16 1014.19 1011.32 1009.80 1009.14 1009.17 1010.69 1010.84 1010.82 1011.13
999.82 1000.94 1001.72 1002.59 1003.46 1004.48 1005.56 1005.30 1005.93 1005.44 1003.57 1001.28 1000.87 1000.60 1000.62 1001.65 1003.02 1004.28 1005.12 1005.67 1006.58 1006.08 1008.59 1010.62 1011.51 1011.61 1011.05 1011.94 1012.32 1013.23 1014.05 1014.89 1015.99 1016.21 1015.51 1013.33 1010.83 1009.70 1009.56 1010.42 1011.81 1011.19 1011.32 1011.61
999.42 1000.40 1001.40 1002.40 1003.07 1003.99 1005.32 1005.32 1005.68 1005.52 1004.31 1001.52 1000.28 1000.06 1000.08 1000.80 1001.60 1003.53 1005.07 1006.57 1007.64 1007.64 1008.90 1010.53 1011.55 1012.36 1011.66 1011.76 1011.96 1012.46 1013.31 1014.50 1015.34 1015.40 1014.63 1012.80 1010.21 1010.00 1010.37 1010.96 1011.23 1011.52 1011.75 1011.98
999.36 1000.23 1001.19 1002.08 1003.11 1004.01 1005.08 1005.85 1005.76 1006.06 1005.53 1003.27 1001.46 1000.01 999.74 999.00 999.66 1001.79 1003.99 1004.85 1005.89 1005.87 1007.05 1009.48 1011.25 1012.47 1012.52 1012.29 1012.40 1011.33 1011.86 1011.81 1012.61 1012.70 1012.08 1010.86 1009.96 1010.08 1010.28 1010.66 1011.52 1012.08 1012.39 1012.60
999.31 1000.20 1000.92 1002.01 1002.71 1003.64 1004.33 1005.48 1005.40 1005.83 1005.42 1003.70 1002.44 1000.55 1000.03 999.01 999.43 999.81 1002.08 1003.55 1004.29 1004.61 1005.06 1008.40 1010.80 1012.06 1012.47 1012.52 1011.85 1010.95 1010.26 1010.17 1010.93 1011.35 1010.82 1010.52 1010.36 1010.84 1010.99 1011.37 1012.24 1012.80 1013.31 1013.62
999.16 999.84 1000.92 1001.89 1002.45 1003.08 1004.00 1004.96 1005.12 1005.21 1004.53 1003.67 1002.28 1000.70 1000.25 1000.05 999.36 1000.08 1000.72 1002.03 1002.97 1003.97 1005.33 1008.25 1010.48 1011.17 1010.88 1011.74 1011.04 1010.49 1009.80 1009.81 1010.45 1010.99 1010.90 1011.28 1011.91 1011.96 1012.24 1012.73 1013.13 1013.88 1014.56 1015.04
998.98 999.80 1000.89 1001.78 1002.75 1003.60 1004.45 1004.89 1004.46 1004.60 1004.95 1002.77 1000.98 1000.70 1000.93 1000.34 1000.41 1000.62 1001.11 1002.02 1003.16 1004.76 1007.08 1008.84 1009.73 1009.67 1010.32 1011.15 1010.88 1010.34 1009.44 1009.63 1010.28 1011.15 1011.09 1011.40 1013.06 1013.19 1013.28 1013.81 1014.64 1015.23 1015.76 1016.58
999.15 999.88 1000.95 1001.84 1002.68 1003.59 1003.91 1005.12 1004.03 1004.31 1005.08 1004.58 1002.56 1002.24 1001.80 1001.29 1001.35 1001.60 1002.29 1002.81 1003.69 1004.83 1006.73 1008.54 1008.79 1008.71 1009.27 1011.20 1011.35 1010.30 1009.53 1009.65 1009.64 1010.82 1011.25 1012.08 1013.46 1014.20 1014.64 1015.19 1016.03 1016.60 1017.14 1017.86
998.93 999.84 1000.61 1001.78 1002.69 1002.69 1003.45 1002.17 1001.86 1002.92 1004.54 1004.50 1003.94 1003.62 1002.55 1002.38 1002.70 1003.65 1003.69 1003.67 1005.00 1005.68 1007.41 1008.60 1009.07 1009.24 1009.63 1010.91 1010.93 1010.46 1010.09 1010.33 1010.69 1011.12 1011.94 1013.44 1013.96 1015.33 1015.95 1016.49 1017.32 1017.85 1018.40 1019.00
999.27 999.97 1001.04 1001.68 1001.80 1002.74 1003.56 1002.35 1001.97 1001.94 1001.53 1001.99 1004.72 1005.57 1005.22 1004.20 1004.92 1005.56 1005.48 1005.58 1006.43 1007.46 1008.57 1008.89 1009.63 1010.03 1010.26 1011.12 1010.70 1010.45 1010.58 1010.94 1011.50 1012.11 1012.25 1013.88 1015.08 1015.89 1016.76 1017.52 1018.20 1018.86 1019.55 1020.14
999.16 1000.21 1000.97 1001.63 1002.42 1002.60 1001.42 1001.06 1000.74 1000.21 1001.15 1003.56 1005.43 1006.59 1006.55 1005.98 1006.77 1006.84 1006.91 1007.04 1008.67 1008.95 1009.40 1009.60 1009.92 1011.18 1011.56 1010.99 1010.94 1011.09 1011.19 1011.38 1012.40 1013.32 1014.12 1015.08 1015.85 1016.78 1017.70 1018.46 1019.22 1019.75 1020.59 1021.01
998.78 999.67 999.71 1000.71 1000.91 1000.92 1000.59 1000.55 1000.83 1002.03 1003.31 1004.93 1006.83 1007.21 1007.45 1007.39 1007.88 1008.46 1008.75 1008.74 1009.44 1010.04 1010.33 1010.01 1010.75 1011.94 1012.12 1011.78 1011.65 1011.75 1011.83 1012.21 1012.91 1014.10 1015.47 1016.06 1016.82 1017.76 1018.56 1019.35 1020.01 1020.59 1021.23 1021.97
998.07 998.31 999.65 1000.60 1000.36 1000.12 1001.03 1002.74 1003.55 1004.69 1006.15 1007.20 1007.76 1007.61 1007.52 1007.33 1007.90 1008.64 1009.21 1009.65 1009.76 1010.39 1010.81 1010.98 1011.64 1012.38 1012.57 1012.61 1012.62 1012.70 1012.71 1012.92 1013.57 1014.44 1015.65 1016.45 1017.35 1018.43 1019.35 1020.32 1021.11 1021.77 1022.42 1022.97
997.70 998.83 1000.10 1000.42 1000.96 1002.23 1003.73 1005.67 1006.39 1006.92 1007.98 1007.94 1007.29 1007.39 1007.54 1007.54 1007.52 1008.68 1009.46 1010.06 1010.13 1010.61 1010.70 1011.42 1012.41 1012.78 1012.83 1013.10 1013.45 1013.65 1013.98 1014.26 1014.98 1015.73 1016.71 1017.67 1018.52 1019.35 1020.27 1021.32 1022.10 1022.69 1023.28 1023.76
998.54 999.81 1001.97 1002.99 1004.06 1004.60 1006.13 1006.90 1006.89 1007.20 1007.52 1007.80 1007.43 1008.12 1008.35 1008.27 1008.26 1009.10 1009.65 1010.17 1010.69 1010.70 1011.40 1011.96 1012.53 1013.02 1013.44 1013.83 1014.20 1014.67 1015.17 1015.79 1016.61 1017.51 1018.25 1019.02 1019.92 1020.70 1021.31 1022.12 1022.80 1023.35 1023.91 1024.40
1001.71 1003.72 1005.70 1006.48 1007.14 1007.68 1007.87 1008.21 1008.38 1008.94 1008.92 1008.75 1008.51 1009.02 1009.52 1009.56 1009.44 1009.80 1010.40 1011.36 1011.28 1011.59 1012.21 1012.71 1013.25 1013.64 1014.10 1014.48 1015.01 1015.49 1016.39 1017.27 1018.05 1018.90 1019.67 1020.39 1021.08 1021.87 1022.50 1022.98 1023.42 1023.89 1024.46 1024.98
1005.07 1006.27 1008.22 1008.99 1009.38 1009.50 1009.68 1009.57 1009.58 1009.84 1009.69 1009.43 1009.41 1009.70 1009.85 1010.29 1010.34 1010.66 1011.32 1011.74 1011.94 1012.21 1013.00 1013.53 1013.91 1014.38 1014.76 1015.33 1016.06 1016.66 1017.40 1018.34 1019.20 1019.98 1020.62 1021.33 1021.92 1022.51 1023.18 1023.64 1023.96 1024.34 1024.87 1025.41
1007.85 1009.26 1009.88 1010.03 1010.03 1010.40 1010.41 1010.23 1010.40 1010.46 1010.18 1009.70 1009.80 1010.06 1010.64 1011.04 1011.16 1011.46 1011.89 1012.48 1013.19 1013.88 1014.27 1014.52 1014.76 1015.21 1015.68 1016.34 1016.93 1017.56 1018.26 1019.06 1019.97 1020.63 1021.24 1021.87 1022.46 1022.96 1023.53 1024.02 1024.39 1024.76 1025.15 1025.68
1010.28 1011.43 1011.40 1011.34 1011.45 1011.59 1011.34 1011.16 1010.95 1010.51 1010.47 1010.81 1010.86 1011.29 1011.84 1011.88 1012.07 1013.05 1013.61 1014.30 1014.76 1014.99 1015.25 1015.42 1015.62 1015.96 1016.73 1017.38 1017.87 1018.35 1018.97 1019.76 1020.47 1021.10 1021.71 1022.19 1022.70 1023.28 1023.87 1024.27 1024.68 1025.08 1025.42 1025.73
Wind_Speed
24 20 27 29 27 25 21 5 8 12 16 7 5 13 13 10 17 12 12 2 3 7 6 9 9 11 2 7 9 9 11 6 5 16 15 6 5 5 6 7 5 2 6 7
28 21 18 32 29 31 11 6 5 10 13 13 12 7 14 18 20 17 7 2 2 3 4 8 8 4 4 6 6 6 3 0 3 9 7 5 3 4 4 4 4 4 7 7
30 26 18 29 32 34 9 5 9 7 9 10 19 17 17 22 13 21 17 7 6 6 4 14 7 4 2 5 4 3 5 3 7 8 8 2 3 3 5 5 5 4 6 5
26 26 26 24 31 33 10 4 9 9 15 17 13 19 14 17 18 16 8 8 9 7 4 1 5 5 4 2 2 2 5 4 1 3 5 5 4 3 6 6 6 8 9 7
27 25 26 24 30 32 13 4 8 7 5 16 16 19 22 24 20 15 17 10 10 7 5 7 7 8 5 6 0 4 1 1 2 2 6 7 4 6 7 7 6 2 2 6
28 27 26 21 28 28 5 4 6 8 7 19 17 22 22 22 15 11 11 8 5 6 3 7 4 5 6 9 9 6 6 6 4 3 4 6 7 8 7 5 4 4 4 6
26 25 26 24 26 31 4 6 3 5 8 14 23 21 22 25 23 11 9 8 8 3 10 8 9 13 11 10 7 5 6 5 3 3 4 2 10 1 5 5 5 8 8 8
26 26 26 25 24 29 10 5 3 2 3 15 17 20 24 16 16 16 3 2 7 11 7 6 4 6 6 3 4 6 4 5 3 6 4 6 8 3 2 4 4 5 7 8
23 23 25 25 24 24 9 11 7 2 2 15 21 25 20 12 7 3 2 8 8 6 5 5 5 5 7 4 3 9 7 6 6 2 5 7 8 3 5 4 2 4 8 7
27 26 25 24 23 20 7 2 9 4 4 5 9 23 21 11 6 6 5 5 5 3 3 4 4 3 8 6 9 4 3 3 6 2 2 8 6 5 2 8 8 4 5 5
25 24 24 23 21 19 8 4 7 2 4 6 5 13 9 6 8 8 7 8 7 2 5 5 3 4 6 5 8 8 7 7 4 4 3 7 6 3 7 7 3 6 4 3
20 23 24 22 23 21 16 4 6 5 2 8 14 7 1 7 11 10 5 8 11 7 6 3 5 3 3 4 3 3 2 8 7 8 8 8 3 7 6 7 6 5 6 6
21 24 23 23 22 20 17 6 3 3 3 8 7 4 5 7 7 8 8 2 7 2 5 6 4 4 5 4 6 3 1 4 4 6 2 2 3 11 9 9 10 12 12 10
22 23 21 21 18 19 16 7 5 1 3 3 5 2 6 5 7 6 6 8 5 7 5 5 4 5 4 5 5 5 6 5 6 2 2 12 10 8 11 13 13 16 16 15
19 18 18 17 17 18 9 3 5 2 1 5 2 6 5 2 5 10 9 8 7 4 4 4 3 3 6 2 4 1 3 6 5 5 2 10 5 7 12 15 13 13 14 14
19 21 19 20 16 15 5 1 7 10 4 5 4 3 5 3 7 9 7 5 3 4 5 2 2 2 6 5 3 1 6 9 4 5 9 15 13 14 14 16 13 13 14 12
17 20 20 19 22 9 6 4 2 7 8 6 3 4 5 6 7 5 5 4 3 4 3 3 4 2 5 3 4 6 7 10 9 7 13 10 6 10 13 15 13 14 13 12
20 21 22 19 15 11 4 10 12 7 3 5 5 2 5 6 3 2 3 3 3 6 2 3 3 3 3 3 5 8 9 10 9 13 13 16 15 14 12 12 11 12 10 7
23 23 24 9 3 3 4 10 11 1 6 5 4 4 3 4 3 2 5 4 4 2 2 1 5 2 2 2 10 7 8 5 12 15 16 14 14 13 13 11 9 10 8 8
26 12 4 5 7 8 10 2 6 7 4 5 3 1 1 2 1 2 3 2 3 2 3 2 4 2 4 6 7 6 5 12 15 16 10 11 12 11 11 12 9 9 10 9
2 3 4 0 5 4 6 5 5 2 5 3 2 4 3 2 4 3 1 2 1 4 4 5 1 1 4 6 7 7 10 11 10 13 10 11 13 13 12 11 10 9 9 9
3 8 4 5 6 6 8 3 2 4 3 1 2 3 2 2 2 4 1 3 2 3 2 4 3 1 10 9 6 7 10 13 14 15 16 15 13 12 12 9 9 9 10 9
4 7 7 5 5 7 4 1 2 4 4 3 3 3 2 4 4 3 3 4 1 2 2 4 1 7 7 8 7 13 15 16 17 16 15 15 13 12 11 9 6 9 8 6
7 6 7 5 4 5 4 4 3 2 2 3 4 3 2 1 4 1 5 1 2 2 4 4 3 7 6 6 9 14 13 13 13 12 12 13 12 10 8 8 6 7 7 6
7 6 6 4 1 2 1 1 2 3 2 2 3 2 3 2 3 3 4 2 2 1 2 1 4 6 6 10 11 12 12 11 10 10 10 10 10 9 9 6 6 7 6 6
6 8 4 3 3 4 4 4 2 1 1 1 2 3 3 4 2 2 3 4 2 2 2 1 5 5 8 10 10 9 10 10 9 9 9 9 8 8 9 7 6 5 5 5
6 4 3 3 3 3 3 3 4 3 4 3 3 4 1 1 3 4 4 3 2 1 2 3 5 9 11 10 7 10 11 10 10 9 8 7 7 8 6 6 5 5 4 4
Wind_Direction
225 218 213 196 188 171 173 187 196 155 148 164 199 221 213 247 254 262 267 265 202 210 195 192 187 206 286 192 148 146 200 154 148 223 230 182 182 191 179 121 265 182 144 269
220 219 222 201 187 179 168 176 161 175 164 194 213 205 229 242 256 263 265 194 213 248 128 326 193 99 312 14 89 134 156 234 50 346 349 326 221 229 231 126 89 189 128 258
222 208 234 205 188 183 185 175 178 163 216 216 191 194 209 225 250 261 255 215 262 296 230 196 194 122 32 18 90 146 105 153 150 184 216 232 342 344 295 162 112 203 208 271
207 202 221 216 194 186 201 212 198 173 189 208 197 187 200 209 227 219 235 244 206 208 234 203 166 99 111 89 225 112 115 156 277 300 323 341 267 215 286 267 211 148 233 216
201 192 208 223 198 187 215 195 186 154 170 179 203 186 210 207 220 234 227 223 211 220 187 177 200 126 152 173 151 134 114 209 82 309 326 12 347 311 298 302 308 317 269 252
199 193 207 232 195 187 191 226 286 162 183 180 188 200 197 213 209 236 220 208 172 194 189 116 85 128 144 152 144 176 130 123 91 248 351 4 346 236 234 237 273 253 293 307
194 196 202 221 194 195 232 227 304 192 180 186 199 188 201 200 224 224 203 204 170 157 102 54 28 43 53 75 39 158 125 109 99 191 36 45 240 235 112 123 48 62 71 68
193 196 201 198 191 196 207 247 273 343 207 182 192 198 194 213 222 233 154 58 166 137 72 78 71 356 36 34 74 83 110 115 104 133 182 282 322 14 81 116 51 40 71 41
200 199 196 189 186 182 201 236 281 289 194 210 183 192 194 203 187 35 56 20 319 82 98 98 140 173 181 170 94 32 57 82 115 126 143 202 234 150 40 46 63 35 63 44
190 191 187 174 168 157 197 254 216 299 277 231 191 189 196 197 126 119 105 92 329 46 107 98 125 227 168 158 158 176 45 3 148 134 174 288 252 142 103 92 225 84 67 73
172 176 174 171 171 167 171 259 250 242 286 279 237 187 173 172 140 141 161 71 279 16 90 114 188 121 231 102 166 171 161 143 191 98 94 282 186 84 130 200 102 87 60 65
175 173 175 175 172 174 170 237 218 237 299 291 318 103 303 185 165 125 163 153 203 187 99 73 91 57 40 118 212 199 127 175 177 160 210 227 134 134 143 116 105 55 66 30
167 171 178 175 174 181 176 186 177 191 284 292 250 102 327 31 113 137 126 96 224 111 149 148 136 131 124 139 244 123 76 134 107 75 282 177 125 60 73 74 79 69 65 54
171 184 175 179 180 189 182 200 214 155 278 194 251 216 41 323 71 90 125 145 82 108 75 95 123 137 173 203 200 138 200 117 150 215 125 81 46 53 87 72 65 81 66 58
175 179 174 166 179 162 158 190 244 261 171 232 219 140 8 47 64 81 87 109 106 91 71 85 183 160 93 310 70 301 171 175 142 205 107 104 95 76 85 82 73 73 83 66
186 183 169 161 158 140 107 322 254 215 202 306 39 290 16 93 95 85 97 114 77 93 110 170 49 74 104 112 166 326 102 75 93 137 92 101 101 79 76 84 78 76 80 80
165 166 164 160 160 140 170 221 49 146 141 218 26 353 347 11 54 27 24 36 61 97 90 65 130 74 82 109 144 155 99 100 87 78 114 104 137 113 99 93 89 86 83 81
152 159 153 151 131 66 225 259 242 221 174 80 95 332 12 2 12 39 333 63 50 16 98 18 97 19 64 84 110 108 104 100 86 72 83 105 106 101 99 103 104 95 92 91
140 136 125 102 210 192 212 241 250 93 102 92 81 121 187 15 27 14 15 52 63 353 93 109 82 347 105 137 130 110 117 128 110 97 96 104 105 110 106 110 103 99 93 84
139 143 162 171 181 235 226 65 38 25 14 48 96 54 157 71 119 11 76 31 145 106 246 56 82 98 74 54 77 86 103 115 117 107 110 113 112 120 111 101 93 94 92 87
221 65 55 231 302 39 37 47 69 45 40 20 200 141 164 315 115 136 96 150 38 97 247 117 167 139 152 94 70 52 55 107 111 114 121 124 118 116 110 94 91 89 86 87
146 110 104 18 26 41 69 41 340 82 163 330 114 56 45 337 106 96 26 111 60 135 181 104 168 122 114 108 99 88 96 99 99 102 101 100 99 107 103 100 99 96 98 96
55 50 56 10 336 47 65 103 81 69 21 7 41 51 51 2 39 60 90 68 42 70 121 182 173 125 118 128 118 102 100 97 95 91 92 92 90 85 100 100 95 105 93 94
62 58 54 38 36 27 20 6 35 17 360 358 65 49 91 320 45 101 91 219 113 116 150 217 127 137 133 120 118 118 106 102 99 100 100 102 102 98 89 90 93 101 101 96
60 38 54 51 88 47 317 244 66 359 297 23 59 45 78 11 85 58 115 110 139 151 168 75 127 130 122 117 110 111 108 106 106 111 112 113 113 109 104 97 99 97 98 94
53 42 42 2 46 21 356 19 25 331 271 27 67 90 66 38 97 76 52 131 73 55 35 44 117 105 102 112 111 113 113 112 118 124 123 123 124 121 120 118 112 115 117 116
43 32 8 12 44 13 357 358 337 337 31 38 28 70 118 274 72 59 22 44 23 57 55 58 96 107 115 118 124 115 120 123 122 123 125 117 116 126 124 111 138 140 117 108